Time,TemperatureF,DewpointF,PressureIn,WindDirection,WindDirectionDegrees,WindSpeedMPH,WindSpeedGustMPH,Humidity,HourlyPrecipIn,Conditions,Clouds,dailyrainin,SoftwareType,DateUTC
2013-03-28 00:52:00,38.0,28.0,-100.00,SW,230,9.0,10.0,68,-99.99,,,-99.99,,2013-03-28 06:52:00,
2013-03-28 01:02:00,38.0,28.0,-100.00,SW,230,9.0,10.0,68,-99.99,,,-99.99,,2013-03-28 07:02:00,
2013-03-28 01:12:00,38.0,28.0,-100.00,SW,230,9.0,10.0,68,-99.99,,,-99.99,,2013-03-28 07:12:00,
2013-03-28 01:22:00,38.0,28.0,-100.00,SW,230,9.0,10.0,68,-99.99,,,-99.99,,2013-03-28 07:22:00,
2013-03-28 01:52:00,35.0,31.0,-100.00,SW,215,9.0,9.0,83,-99.99,,,0.00,,2013-03-28 07:52:00,
2013-03-28 02:02:00,35.0,31.0,-100.00,SW,215,9.0,9.0,83,-99.99,,,0.00,,2013-03-28 08:02:00,
2013-03-28 02:11:00,35.0,31.0,-100.00,SW,215,9.0,9.0,83,-99.99,,,0.00,,2013-03-28 08:11:00,
2013-03-28 02:21:00,35.0,31.0,-100.00,SW,215,9.0,9.0,83,-99.99,,,0.00,,2013-03-28 08:21:00,
2013-03-28 02:52:00,38.0,32.0,-100.00,SW,215,3.0,4.0,80,-99.99,,,0.00,,2013-03-28 08:52:00,
2013-03-28 03:01:00,38.0,32.0,-100.00,SW,215,3.0,4.0,80,-99.99,,,0.00,,2013-03-28 09:01:00,
2013-03-28 03:12:00,38.0,32.0,-100.00,SW,215,3.0,4.0,80,-99.99,,,0.00,,2013-03-28 09:12:00,
2013-03-28 03:22:00,38.0,32.0,-100.00,SW,215,3.0,4.0,80,-99.99,,,0.00,,2013-03-28 09:22:00,
2013-03-28 03:52:00,37.0,32.0,-100.00,WSW,240,1.0,2.0,82,-99.99,,,0.00,,2013-03-28 09:52:00,
2013-03-28 04:02:00,37.0,32.0,-100.00,WSW,240,1.0,2.0,82,-99.99,,,0.00,,2013-03-28 10:02:00,
2013-03-28 04:12:00,37.0,32.0,-100.00,WSW,240,1.0,2.0,82,-99.99,,,0.00,,2013-03-28 10:12:00,
2013-03-28 04:22:00,37.0,32.0,-100.00,WSW,240,1.0,2.0,82,-99.99,,,0.00,,2013-03-28 10:22:00,
2013-03-28 04:53:00,36.0,32.0,-100.00,South,190,4.0,4.0,88,-99.99,,,0.00,,2013-03-28 10:53:00,
2013-03-28 05:02:00,36.0,32.0,-100.00,South,190,4.0,4.0,88,-99.99,,,0.00,,2013-03-28 11:02:00,
2013-03-28 05:12:00,36.0,32.0,-100.00,South,190,4.0,4.0,88,-99.99,,,0.00,,2013-03-28 11:12:00,
2013-03-28 05:22:00,36.0,32.0,-100.00,South,190,4.0,4.0,88,-99.99,,,0.00,,2013-03-28 11:22:00,
2013-03-28 05:52:00,34.0,31.0,-100.00,SW,225,4.0,5.0,89,-99.99,,,0.00,,2013-03-28 11:52:00,
2013-03-28 06:02:00,34.0,31.0,-100.00,SW,225,4.0,5.0,89,-99.99,,,0.00,,2013-03-28 12:02:00,
2013-03-28 06:12:00,34.0,31.0,-100.00,SW,225,4.0,5.0,89,-99.99,,,0.00,,2013-03-28 12:12:00,
2013-03-28 06:22:00,34.0,31.0,-100.00,SW,225,4.0,5.0,89,-99.99,,,0.00,,2013-03-28 12:22:00,
2013-03-28 06:52:00,35.0,31.0,-100.00,SW,235,6.0,6.0,87,-99.99,,,0.00,,2013-03-28 12:52:00,
2013-03-28 07:02:00,35.0,31.0,-100.00,SW,235,6.0,6.0,87,-99.99,,,0.00,,2013-03-28 13:02:00,
2013-03-28 07:12:00,35.0,31.0,-100.00,SW,235,6.0,6.0,87,-99.99,,,0.00,,2013-03-28 13:12:00,
2013-03-28 07:22:00,35.0,31.0,-100.00,SW,235,6.0,6.0,87,-99.99,,,0.00,,2013-03-28 13:22:00,
2013-03-28 07:52:00,34.0,31.0,-100.00,South,185,1.0,2.0,91,-99.99,,,0.00,,2013-03-28 13:52:00,
2013-03-28 08:02:00,34.0,31.0,-100.00,South,185,1.0,2.0,91,-99.99,,,0.00,,2013-03-28 14:02:00,
2013-03-28 08:12:00,34.0,31.0,-100.00,South,185,1.0,2.0,91,-99.99,,,0.00,,2013-03-28 14:12:00,
2013-03-28 08:22:00,34.0,31.0,-100.00,South,185,1.0,2.0,91,-99.99,,,0.00,,2013-03-28 14:22:00,
2013-03-28 09:12:00,36.0,33.0,-100.00,SSW,205,1.0,3.0,89,-99.99,,,0.00,,2013-03-28 15:12:00,
2013-03-28 09:21:00,36.0,33.0,-100.00,SSW,205,1.0,3.0,89,-99.99,,,0.00,,2013-03-28 15:21:00,
2013-03-28 09:53:00,43.0,35.0,-100.00,SE,140,8.0,9.0,73,-99.99,,,0.00,,2013-03-28 15:53:00,
2013-03-28 10:02:00,43.0,35.0,-100.00,SE,140,8.0,9.0,73,-99.99,,,0.00,,2013-03-28 16:02:00,
2013-03-28 10:12:00,43.0,35.0,-100.00,SE,140,8.0,9.0,73,-99.99,,,0.00,,2013-03-28 16:12:00,
2013-03-28 10:22:00,43.0,35.0,-100.00,SE,140,8.0,9.0,73,-99.99,,,0.00,,2013-03-28 16:22:00,
2013-03-28 10:52:00,48.0,33.0,-100.00,SSE,150,9.0,11.0,56,-99.99,,,0.00,,2013-03-28 16:52:00,
2013-03-28 11:02:00,48.0,33.0,-100.00,SSE,150,9.0,11.0,56,-99.99,,,0.00,,2013-03-28 17:02:00,
2013-03-28 11:12:00,48.0,33.0,-100.00,SSE,150,9.0,11.0,56,-99.99,,,0.00,,2013-03-28 17:12:00,
2013-03-28 11:22:00,48.0,33.0,-100.00,SSE,150,9.0,11.0,56,-99.99,,,0.00,,2013-03-28 17:22:00,
2013-03-28 11:52:00,52.0,31.0,-100.00,SSW,200,11.0,15.0,46,-99.99,,,0.00,,2013-03-28 17:52:00,
2013-03-28 12:02:00,52.0,31.0,-100.00,SSW,200,11.0,15.0,46,-99.99,,,0.00,,2013-03-28 18:02:00,
2013-03-28 12:12:00,52.0,31.0,-100.00,SSW,200,11.0,15.0,46,-99.99,,,0.00,,2013-03-28 18:12:00,
2013-03-28 12:22:00,52.0,31.0,-100.00,SSW,200,11.0,15.0,46,-99.99,,,0.00,,2013-03-28 18:22:00,
2013-03-28 12:52:00,53.0,29.0,-100.00,South,190,9.0,11.0,40,-99.99,,,0.00,,2013-03-28 18:52:00,
2013-03-28 13:02:00,53.0,29.0,-100.00,South,190,9.0,11.0,40,-99.99,,,0.00,,2013-03-28 19:02:00,
2013-03-28 13:12:00,53.0,29.0,-100.00,South,190,9.0,11.0,40,-99.99,,,0.00,,2013-03-28 19:12:00,
2013-03-28 13:22:00,53.0,29.0,-100.00,South,190,9.0,11.0,40,-99.99,,,0.00,,2013-03-28 19:22:00,
2013-03-28 13:52:00,56.0,28.0,-100.00,South,170,6.0,8.0,34,-99.99,,,0.00,,2013-03-28 19:52:00,
2013-03-28 14:02:00,56.0,28.0,-100.00,South,170,6.0,8.0,34,-99.99,,,0.00,,2013-03-28 20:02:00,
2013-03-28 14:12:00,56.0,28.0,-100.00,South,170,6.0,8.0,34,-99.99,,,0.00,,2013-03-28 20:12:00,
2013-03-28 14:22:00,56.0,28.0,-100.00,South,170,6.0,8.0,34,-99.99,,,0.00,,2013-03-28 20:22:00,
2013-03-28 14:53:00,56.0,28.0,-100.00,WSW,245,11.0,14.0,34,-99.99,,,0.00,,2013-03-28 20:53:00,
2013-03-28 15:02:00,56.0,28.0,-100.00,WSW,245,11.0,14.0,34,-99.99,,,0.00,,2013-03-28 21:02:00,
2013-03-28 15:12:00,56.0,28.0,-100.00,WSW,245,11.0,14.0,34,-99.99,,,0.00,,2013-03-28 21:12:00,
2013-03-28 15:22:00,56.0,28.0,-100.00,WSW,245,11.0,14.0,34,-99.99,,,0.00,,2013-03-28 21:22:00,
2013-03-28 15:53:00,56.0,25.0,-100.00,WSW,245,8.0,9.0,30,-99.99,,,0.00,,2013-03-28 21:53:00,
2013-03-28 16:02:00,56.0,25.0,-100.00,WSW,245,8.0,9.0,30,-99.99,,,0.00,,2013-03-28 22:02:00,
2013-03-28 16:12:00,56.0,25.0,-100.00,WSW,245,8.0,9.0,30,-99.99,,,0.00,,2013-03-28 22:12:00,
2013-03-28 16:22:00,56.0,25.0,-100.00,WSW,245,8.0,9.0,30,-99.99,,,0.00,,2013-03-28 22:22:00,
2013-03-28 16:52:00,54.0,27.0,-100.00,WNW,290,17.0,22.0,35,-99.99,,,0.00,,2013-03-28 22:52:00,
2013-03-28 17:02:00,54.0,27.0,-100.00,WNW,290,17.0,22.0,35,-99.99,,,0.00,,2013-03-28 23:02:00,
2013-03-28 17:12:00,54.0,27.0,-100.00,WNW,290,17.0,22.0,35,-99.99,,,0.00,,2013-03-28 23:12:00,
2013-03-28 17:21:00,54.0,27.0,-100.00,WNW,290,17.0,22.0,35,-99.99,,,0.00,,2013-03-28 23:21:00,
2013-03-28 17:52:00,57.0,26.0,-100.00,WNW,295,16.0,17.0,31,-99.99,,,0.00,,2013-03-28 23:52:00,
2013-03-28 18:02:00,57.0,26.0,-100.00,WNW,295,16.0,17.0,31,-99.99,,,0.00,,2013-03-29 00:02:00,
2013-03-28 18:12:00,57.0,26.0,-100.00,WNW,295,16.0,17.0,31,-99.99,,,0.00,,2013-03-29 00:12:00,
2013-03-28 18:22:00,57.0,26.0,-100.00,WNW,295,16.0,17.0,31,-99.99,,,0.00,,2013-03-29 00:22:00,
2013-03-28 18:52:00,54.0,27.0,-100.00,WNW,295,15.0,16.0,35,-99.99,,,0.00,,2013-03-29 00:52:00,
2013-03-28 19:02:00,54.0,27.0,-100.00,WNW,295,15.0,16.0,35,-99.99,,,0.00,,2013-03-29 01:02:00,
2013-03-28 19:12:00,54.0,27.0,-100.00,WNW,295,15.0,16.0,35,-99.99,,,0.00,,2013-03-29 01:12:00,
2013-03-28 19:22:00,54.0,27.0,-100.00,WNW,295,15.0,16.0,35,-99.99,,,0.00,,2013-03-29 01:22:00,
2013-03-28 19:52:00,50.0,25.0,-100.00,WNW,300,11.0,11.0,37,-99.99,,,0.00,,2013-03-29 01:52:00,
2013-03-28 20:02:00,50.0,25.0,-100.00,WNW,300,11.0,11.0,37,-99.99,,,0.00,,2013-03-29 02:02:00,
2013-03-28 20:12:00,50.0,25.0,-100.00,WNW,300,11.0,11.0,37,-99.99,,,0.00,,2013-03-29 02:12:00,
2013-03-28 20:22:00,50.0,25.0,-100.00,WNW,300,11.0,11.0,37,-99.99,,,0.00,,2013-03-29 02:22:00,
2013-03-28 20:53:00,49.0,27.0,-100.00,West,275,11.0,12.0,41,-99.99,,,0.00,,2013-03-29 02:53:00,
2013-03-28 21:02:00,49.0,27.0,-100.00,West,275,11.0,12.0,41,-99.99,,,0.00,,2013-03-29 03:02:00,
2013-03-28 21:12:00,49.0,27.0,-100.00,West,275,11.0,12.0,41,-99.99,,,0.00,,2013-03-29 03:12:00,
2013-03-28 21:21:00,49.0,27.0,-100.00,West,275,11.0,12.0,41,-99.99,,,0.00,,2013-03-29 03:21:00,
2013-03-28 21:53:00,47.0,27.0,-100.00,SW,230,12.0,13.0,47,-99.99,,,0.00,,2013-03-29 03:53:00,
2013-03-28 22:02:00,47.0,27.0,-100.00,SW,230,12.0,13.0,47,-99.99,,,0.00,,2013-03-29 04:02:00,
2013-03-28 22:12:00,47.0,27.0,-100.00,SW,230,12.0,13.0,47,-99.99,,,0.00,,2013-03-29 04:12:00,
2013-03-28 22:22:00,47.0,27.0,-100.00,SW,230,12.0,13.0,47,-99.99,,,0.00,,2013-03-29 04:22:00,
2013-03-28 22:52:00,42.0,29.0,-100.00,West,260,8.0,8.0,59,-99.99,,,0.00,,2013-03-29 04:52:00,
2013-03-28 23:02:00,42.0,29.0,-100.00,West,260,8.0,8.0,59,-99.99,,,0.00,,2013-03-29 05:02:00,
2013-03-28 23:12:00,42.0,29.0,-100.00,West,260,8.0,8.0,59,-99.99,,,0.00,,2013-03-29 05:12:00,
2013-03-28 23:22:00,42.0,29.0,-100.00,West,260,8.0,8.0,59,-99.99,,,0.00,,2013-03-29 05:22:00,
2013-03-28 23:52:00,43.0,32.0,-100.00,SW,230,8.0,9.0,65,-99.99,,,-99.99,,2013-03-29 05:52:00,